Location: Newark
(9.4667°S, 159.8167°E)
Time: 12:56:21
(UTC+00:00)

Courier 1B Rocket - Pass Details

Date: 24 November 2019
Orbit: 920 x 1202 km, 28.2° (Epoch: 13 December)

Event Time Altitude Azimuth Distance (km) Brightness Sun altitude
Rises 12:01:00 0° 289° (WNW) 4,091 - -55.8°
Reaches altitude 10° 12:03:55 10° 285° (WNW) 3,126 - -56.2°
Maximum altitude 12:11:36 60° 207° (SSW) 1,329 - -57.0°
Drops below altitude 10° 12:19:02 10° 128° (SE) 3,017 - -57.7°
Sets 12:21:48 0° 124° (ESE) 3,939 - -58.0°
